Regional Weather Roundup
Issued by NWS Binghamton, NY

Home | Current Version | Previous Version | Text Only | Print | Product List | Glossary On
Versions: 1 2 3 4 5 6 7 8 9 10 11 12 13 14 15 16 17 18 19 20 21 22 23 24 25 26 27 28 29 30 31 32 33 34 35 36 37 38 39 40 41 42 43 44 45 46 47 48 49 50
000
ASUS41 KBGM 021110
RWRBGM
RWRBGM
BINGHAMTON REGIONAL WEATHER ROUNDUP
NATIONAL WEATHER SERVICE BINGHAMTON NY
700 AM EDT WED SEP 02 2015

Note: "fair" indicates few or no clouds below 12,000 feet with no
significant weather and/or obstructions to visibility.

* = Station(s) that does not report precipitation, such as rain,
snow, etc, also no thunder or fog.

!NYZ009-015>018-022>025-036-037-044>046-055>057-062-021200
...CENTRAL NEW YORK...

CITY           SKY/WX    TMP DP  RH WIND       PRES   REMARKS
BINGHAMTON     FOG       61  60  97 W3        30.09R VSB 1/2
CORTLAND       FOG       61  61 100 CALM      30.09R VSB 1/4
DANSVILLE      CLEAR     63  61  93 SE6       30.08R FOG
ELMIRA         FOG       63  63 100 W3        30.07R VSB 3/4
ITHACA         CLEAR     59  59 100 E5        30.09R FOG
HORNELL        FOG       59  57  94 SE3         N/A  VSB 1/4
MONTICELLO     CLEAR     57  57 100 CALM      30.10R
NORWICH        FOG       61  61 100 CALM      30.08S VSB 0
ONEONTA        CLEAR     57  57 100 CALM      30.10R FOG
PENN YAN       CLEAR     67  65  93 SW6       30.07R FOG
ROME           FOG       60  59  96 CALM      30.06R VSB 1
SIDNEY         FOG       61  61 100 CALM      30.08S VSB 0
SYRACUSE       FOG       60  60 100 E5        30.04R VSB 3/4
$$

!PAZ038>040-043-044-047-048-072-021200
...NORTHEAST PENNSYLVANIA...

CITY           SKY/WX    TMP DP  RH WIND       PRES   REMARKS
HAZLETON       FOG       59  59 100 CALM      30.13R VSB 1/2
SCRANTON       CLEAR     64  60  87 CALM      30.07R FOG
TOWANDA*         N/A     61  61 100 MISG      30.09R
$$
&&
KEY
WCI = WIND CHILL INDEX
VSB = VISIBILITY
HX  = HEAT INDEX
$$


USA.gov is the U.S. government's official web portal to all federal, state and local government web resources and services.